This demonstration page uses our WeatherBlox Daily Observations layout. Learn more.

Left ArrowRight Arrow

Hourly Observations for April 27, 2020

Temp ( °F °C ) Dew Point ( °F °C ) Humidity (%) Winds ( mph kmh ) Pressure ( in mb ) Visibility ( mi km ) Precip ( " mm )
12:51 am 00:51 Clear 67 19.4 25 -3.9 20 20 NE 3 6 29.8 1009 10 16.0934 0 0
1:51 am 01:51 Clear 67 19.4 26 -3.3 21 21 E 5 7 29.8 1009 10 16.0934 0 0
2:51 am 02:51 Clear 63 17.2 26 -3.3 25 25 SE 3 6 29.8 1009 10 16.0934 0 0
3:51 am 03:51 Clear 60 15.6 27 -2.8 28 28 SSE 3 6 29.82 1010 10 16.0934 0 0
4:51 am 04:51 Clear 56 13.3 25 -3.9 30 30 ENE 3 6 29.84 1010 10 16.0934 0 0
5:51 am 05:51 Sunny 57 13.9 27 -2.8 32 32 SSE 3 6 29.86 1011 10 16.0934 0 0
6:51 am 06:51 Sunny 63 17.2 29 -1.7 28 28 E 3 6 29.87 1012 10 16.0934 0 0
7:51 am 07:51 Sunny 68 20 30 -1.1 24 24 SSE 5 7 29.89 1012 10 16.0934 0 0
8:51 am 08:51 Sunny 78 25.6 31 -0.6 18 18 ESE 5 7 29.88 1012 10 16.0934 0 0
9:51 am 09:51 Sunny 83 28.3 31 -0.6 15 15 W 3 6 29.88 1012 10 16.0934 0 0
10:51 am 10:51 Sunny 87 30.6 31 -0.6 13 13 W 8 13 29.88 1012 10 16.0934 0 0
11:51 am 11:51 Sunny 91 32.8 31 -0.6 12 12 VRB 6 9 29.85 1011 10 16.0934 0 0
12:51 pm 12:51 Sunny 91 32.8 31 -0.6 12 12 NW 7 11 29.84 1010 10 16.0934 0 0
1:51 pm 13:51 Sunny 91 32.8 32 0 12 12 WSW 3 6 29.82 1010 10 16.0934 0 0
2:51 pm 14:51 Sunny 94 34.4 32 0 11 11 VRB 6 9 29.8 1009 10 16.0934 0 0
3:51 pm 15:51 Sunny 96 35.6 28 -2.2 9 9 WNW 17 28 29.78 1008 10 16.0934 0 0
4:51 pm 16:51 Sunny 95 35 26 -3.3 8 8 WNW 17 28 29.78 1008 10 16.0934 0 0
5:51 pm 17:51 Sunny 92 33.3 24 -4.4 8 8 WNW 17 28 29.79 1009 10 16.0934 0 0
6:51 pm 18:51 Sunny 88 31.1 27 -2.8 11 11 WNW 12 19 29.79 1009 10 16.0934 0 0
7:51 pm 19:51 Clear 79 26.1 28 -2.2 15 15 NNW 6 9 29.81 1009 10 16.0934 0 0
8:51 pm 20:51 Clear 77 25 27 -2.8 16 16 W 9 15 29.81 1010 10 16.0934 0 0
9:51 pm 21:51 Clear 71 21.7 27 -2.8 19 19 NNW 8 13 29.83 1010 10 16.0934 0 0
10:51 pm 22:51 Clear 74 23.3 25 -3.9 16 16 NW 10 17 29.82 1010 10 16.0934 0 0
11:51 pm 23:51 Clear 77 25 25 -3.9 14 14 NW 13 20 29.82 1010 10 16.0934 0 0

Powered by AerisWeather